| time (UTC) | temp F | wind direction | speed MPH | gust MPH | rain 1hr in | rain 24hr in | rain mn in | humidity % | barometer mb |
| 20260505235604 | 69 | 336 | 1.0 | 5.0 | 0.00 | 0.00 | 0.00 | 50 | 1013.6 |
| 20260505234105 | 69 | 328 | 1.0 | 3.0 | 0.00 | 0.00 | 0.00 | 50 | 1013.7 |
| 20260505233105 | 69 | 319 | 1.0 | 3.0 | 0.00 | 0.00 | 0.00 | 49 | 1013.9 |
| 20260505232105 | 70 | 308 | 0.0 | 3.0 | 0.00 | 0.00 | 0.00 | 49 | 1014.0 |
| 20260505231605 | 70 | 297 | 1.0 | 3.0 | 0.00 | 0.00 | 0.00 | 49 | 1014.1 |
| 20260505231105 | 70 | 315 | 1.0 | 3.0 | 0.00 | 0.00 | 0.00 | 48 | 1014.1 |
| 20260505230605 | 70 | 292 | 0.0 | 1.0 | 0.00 | 0.00 | 0.00 | 48 | 1014.1 |
| 20260505224604 | 70 | 308 | 0.0 | 1.0 | 0.00 | 0.00 | 0.00 | 49 | 1014.3 |
| 20260505224106 | 69 | 171 | 0.0 | 0.0 | 0.00 | 0.00 | 0.00 | 49 | 1014.3 |
| 20260505223107 | 70 | 302 | 0.0 | 3.0 | 0.00 | 0.00 | 0.00 | 49 | 1014.3 |
| 20260505222604 | 71 | 309 | 1.0 | 3.0 | 0.00 | 0.00 | 0.00 | 48 | 1014.3 |
| 20260505222105 | 71 | 300 | 0.0 | 1.0 | 0.00 | 0.00 | 0.00 | 47 | 1014.4 |
| 20260505221605 | 71 | 127 | 0.0 | 1.0 | 0.00 | 0.00 | 0.00 | 50 | 1014.4 |
| 20260505220605 | 70 | 200 | 0.0 | 2.0 | 0.00 | 0.00 | 0.00 | 50 | 1014.5 |
| 20260505220105 | 69 | 342 | 0.0 | 3.0 | 0.00 | 0.00 | 0.00 | 50 | 1014.6 |
| 20260505215604 | 69 | 323 | 0.0 | 3.0 | 0.00 | 0.00 | 0.00 | 49 | 1014.8 |
| 20260505214605 | 69 | 299 | 1.0 | 3.0 | 0.00 | 0.00 | 0.00 | 52 | 1014.8 |
| 20260505213605 | 68 | 143 | 1.0 | 5.0 | 0.00 | 0.00 | 0.00 | 54 | 1014.8 |
| 20260505212604 | 67 | 198 | 0.0 | 1.0 | 0.00 | 0.00 | 0.00 | 56 | 1014.9 |
| 20260505212105 | 67 | 266 | 0.0 | 2.0 | 0.00 | 0.00 | 0.00 | 56 | 1014.9 |
| 20260505211105 | 67 | 307 | 2.0 | 3.0 | 0.00 | 0.00 | 0.00 | 56 | 1014.9 |
| 20260505210105 | 67 | 312 | 2.0 | 5.0 | 0.00 | 0.00 | 0.00 | 56 | 1014.9 |
| 20260505205605 | 68 | 302 | 1.0 | 5.0 | 0.00 | 0.00 | 0.00 | 59 | 1014.9 |
| 20260505205105 | 68 | 303 | 1.0 | 3.0 | 0.00 | 0.00 | 0.00 | 56 | 1014.9 |
| 20260505204604 | 68 | 285 | 1.0 | 3.0 | 0.00 | 0.00 | 0.00 | 57 | 1014.9 |
| 20260505204105 | 68 | 310 | 1.0 | 3.0 | 0.00 | 0.00 | 0.00 | 57 | 1014.9 |
| 20260505202605 | 69 | 310 | 1.0 | 3.0 | 0.00 | 0.00 | 0.00 | 55 | 1014.9 |
| 20260505201605 | 67 | 299 | 2.0 | 5.0 | 0.00 | 0.00 | 0.00 | 58 | 1014.9 |
| 20260505200604 | 66 | 300 | 2.0 | 7.0 | 0.00 | 0.00 | 0.00 | 61 | 1014.9 |
| 20260505200105 | 66 | 309 | 2.0 | 6.0 | 0.00 | 0.00 | 0.00 | 61 | 1015.0 |
| 20260505195605 | 66 | 301 | 2.0 | 5.0 | 0.00 | 0.00 | 0.00 | 61 | 1015.0 |
| 20260505195105 | 66 | 310 | 2.0 | 5.0 | 0.00 | 0.00 | 0.00 | 63 | 1015.1 |
| 20260505194605 | 66 | 304 | 2.0 | 6.0 | 0.00 | 0.00 | 0.00 | 64 | 1015.0 |
| 20260505194104 | 66 | 305 | 2.0 | 5.0 | 0.00 | 0.00 | 0.00 | 64 | 1015.1 |
| 20260505192604 | 64 | 297 | 2.0 | 5.0 | 0.00 | 0.00 | 0.00 | 66 | 1015.1 |
| 20260505192105 | 64 | 278 | 2.0 | 7.0 | 0.00 | 0.00 | 0.00 | 65 | 1015.1 |
| 20260505190605 | 64 | 279 | 2.0 | 3.0 | 0.00 | 0.00 | 0.00 | 67 | 1015.1 |
| 20260505190104 | 64 | 298 | 1.0 | 3.0 | 0.00 | 0.00 | 0.00 | 69 | 1015.1 |
| 20260505185605 | 63 | 271 | 1.0 | 2.0 | 0.00 | 0.00 | 0.00 | 68 | 1015.1 |
| 20260505185104 | 63 | 288 | 0.0 | 2.0 | 0.00 | 0.00 | 0.00 | 69 | 1015.1 |
| 20260505184604 | 62 | 293 | 2.0 | 3.0 | 0.00 | 0.00 | 0.00 | 69 | 1015.0 |
| 20260505181605 | 62 | 258 | 1.0 | 3.0 | 0.00 | 0.00 | 0.00 | 71 | 1015.1 |
| 20260505175605 | 62 | 293 | 0.0 | 3.0 | 0.00 | 0.00 | 0.00 | 74 | 1015.0 |
| 20260505175105 | 62 | 312 | 1.0 | 3.0 | 0.00 | 0.00 | 0.00 | 74 | 1015.0 |
| 20260505174104 | 61 | 310 | 1.0 | 3.0 | 0.00 | 0.00 | 0.00 | 75 | 1014.9 |
| 20260505173605 | 61 | 307 | 1.0 | 3.0 | 0.00 | 0.00 | 0.00 | 75 | 1014.9 |
| 20260505172605 | 61 | 307 | 1.0 | 3.0 | 0.00 | 0.00 | 0.00 | 76 | 1014.9 |
| 20260505172105 | 61 | 294 | 1.0 | 3.0 | 0.00 | 0.00 | 0.00 | 75 | 1014.9 |
| 20260505171104 | 61 | 311 | 1.0 | 3.0 | 0.00 | 0.00 | 0.00 | 75 | 1015.0 |
| 20260505170604 | 61 | 312 | 1.0 | 3.0 | 0.00 | 0.00 | 0.00 | 76 | 1014.9 |
| 20260505165604 | 61 | 305 | 2.0 | 3.0 | 0.00 | 0.00 | 0.00 | 78 | 1014.8 |
| 20260505164605 | 60 | 269 | 0.0 | 3.0 | 0.00 | 0.00 | 0.00 | 79 | 1014.7 |
| 20260505163605 | 60 | 305 | 1.0 | 3.0 | 0.00 | 0.00 | 0.00 | 80 | 1014.8 |
| 20260505160604 | 58 | 322 | 0.0 | 3.0 | 0.00 | 0.00 | 0.00 | 85 | 1014.7 |
| 20260505152604 | 57 | 314 | 0.0 | 2.0 | 0.00 | 0.00 | 0.00 | 86 | 1014.4 |
| 20260505152105 | 57 | 23 | 0.0 | 3.0 | 0.00 | 0.00 | 0.00 | 86 | 1014.4 |
| 20260505151604 | 57 | 290 | 1.0 | 3.0 | 0.00 | 0.00 | 0.00 | 85 | 1014.3 |
| 20260505151105 | 57 | 314 | 0.0 | 1.0 | 0.00 | 0.00 | 0.00 | 85 | 1014.3 |
| 20260505123104 | 56 | 270 | 0.0 | 0.0 | 0.00 | 0.00 | 0.00 | 84 | 1012.9 |
| 20260505122605 | 56 | 270 | 0.0 | 0.0 | 0.00 | 0.00 | 0.00 | 84 | 1012.9 |
| 20260505122105 | 56 | 269 | 0.0 | 0.0 | 0.00 | 0.00 | 0.00 | 84 | 1012.9 |
| 20260505121605 | 56 | 269 | 0.0 | 0.0 | 0.00 | 0.00 | 0.00 | 84 | 1012.8 |
| 20260505121105 | 56 | 269 | 0.0 | 0.0 | 0.00 | 0.00 | 0.00 | 84 | 1012.7 |
| 20260505115105 | 56 | 278 | 0.0 | 0.0 | 0.00 | 0.00 | 0.00 | 84 | 1012.7 |
| 20260505114105 | 56 | 278 | 0.0 | 1.0 | 0.00 | 0.00 | 0.00 | 83 | 1012.7 |
| 20260505113605 | 56 | 278 | 0.0 | 0.0 | 0.00 | 0.00 | 0.00 | 83 | 1012.7 |
| 20260505112604 | 56 | 278 | 0.0 | 0.0 | 0.00 | 0.00 | 0.00 | 83 | 1012.7 |
| 20260505112104 | 56 | 278 | 0.0 | 0.0 | 0.00 | 0.00 | 0.00 | 83 | 1012.8 |
| 20260505111605 | 56 | 274 | 0.0 | 0.0 | 0.00 | 0.00 | 0.00 | 82 | 1012.8 |
| 20260505110105 | 57 | 312 | 0.0 | 0.0 | 0.00 | 0.00 | 0.00 | 82 | 1012.8 |
| 20260505101605 | 57 | 311 | 0.0 | 0.0 | 0.00 | 0.00 | 0.00 | 82 | 1012.9 |
| 20260505101105 | 57 | 311 | 0.0 | 0.0 | 0.00 | 0.00 | 0.00 | 81 | 1013.0 |
| 20260505100605 | 57 | 311 | 0.0 | 0.0 | 0.00 | 0.00 | 0.00 | 81 | 1013.0 |
| 20260505095605 | 57 | 311 | 0.0 | 0.0 | 0.00 | 0.00 | 0.00 | 82 | 1013.0 |
| 20260505094104 | 57 | 310 | 0.0 | 0.0 | 0.00 | 0.00 | 0.00 | 83 | 1013.0 |
| 20260505092104 | 57 | 311 | 0.0 | 0.0 | 0.00 | 0.00 | 0.00 | 83 | 1013.0 |
| 20260505091605 | 57 | 310 | 0.0 | 0.0 | 0.00 | 0.00 | 0.00 | 83 | 1013.0 |
| 20260505090605 | 57 | 310 | 0.0 | 0.0 | 0.00 | 0.00 | 0.00 | 82 | 1013.1 |
| 20260505085605 | 57 | 310 | 0.0 | 0.0 | 0.00 | 0.00 | 0.00 | 81 | 1013.1 |
| 20260505085105 | 58 | 310 | 0.0 | 0.0 | 0.00 | 0.00 | 0.00 | 80 | 1013.1 |
| 20260505084105 | 58 | 310 | 0.0 | 0.0 | 0.00 | 0.00 | 0.00 | 79 | 1013.1 |
| 20260505083605 | 58 | 310 | 0.0 | 0.0 | 0.00 | 0.00 | 0.00 | 79 | 1013.1 |
| 20260505080605 | 58 | 312 | 0.0 | 0.0 | 0.00 | 0.00 | 0.00 | 79 | 1013.4 |
| 20260505073604 | 58 | 285 | 0.0 | 0.0 | 0.00 | 0.00 | 0.00 | 79 | 1013.1 |
| 20260505072605 | 58 | 286 | 0.0 | 1.0 | 0.00 | 0.00 | 0.00 | 79 | 1013.1 |
| 20260505071605 | 58 | 294 | 0.0 | 0.0 | 0.00 | 0.00 | 0.00 | 79 | 1013.2 |
| 20260505071106 | 58 | 294 | 0.0 | 0.0 | 0.00 | 0.00 | 0.00 | 79 | 1013.2 |
| 20260505070605 | 58 | 294 | 0.0 | 0.0 | 0.00 | 0.00 | 0.00 | 79 | 1013.1 |
| 20260505064605 | 58 | 290 | 0.0 | 0.0 | 0.00 | 0.00 | 0.00 | 78 | 1013.2 |
| 20260505064104 | 58 | 284 | 0.0 | 0.0 | 0.00 | 0.00 | 0.00 | 79 | 1013.2 |
| 20260505062604 | 58 | 302 | 0.0 | 0.0 | 0.00 | 0.00 | 0.00 | 79 | 1013.3 |
| 20260505061605 | 58 | 302 | 0.0 | 0.0 | 0.00 | 0.00 | 0.00 | 78 | 1013.3 |
| 20260505060605 | 59 | 302 | 0.0 | 0.0 | 0.00 | 0.00 | 0.00 | 77 | 1013.3 |
| 20260505055105 | 59 | 304 | 0.0 | 0.0 | 0.00 | 0.00 | 0.00 | 76 | 1013.2 |
| 20260505053604 | 59 | 302 | 0.0 | 0.0 | 0.00 | 0.00 | 0.00 | 75 | 1013.2 |
| 20260505052604 | 59 | 317 | 0.0 | 1.0 | 0.00 | 0.00 | 0.00 | 74 | 1013.2 |
| 20260505051605 | 59 | 326 | 0.0 | 1.0 | 0.00 | 0.00 | 0.00 | 73 | 1013.2 |
| 20260505051105 | 59 | 349 | 0.0 | 0.0 | 0.00 | 0.00 | 0.00 | 73 | 1013.1 |
| 20260505041605 | 61 | 343 | 0.0 | 0.0 | 0.00 | 0.00 | 0.00 | 68 | 1013.2 |
| 20260505035105 | 61 | 310 | 0.0 | 1.0 | 0.00 | 0.00 | 0.00 | 68 | 1013.0 |
| 20260505034604 | 61 | 328 | 0.0 | 0.0 | 0.00 | 0.00 | 0.00 | 68 | 1012.9 |
| 20260505033605 | 61 | 329 | 0.0 | 0.0 | 0.00 | 0.00 | 0.00 | 68 | 1012.8 |
| 20260505033105 | 61 | 329 | 0.0 | 1.0 | 0.00 | 0.00 | 0.00 | 67 | 1012.7 |
| 20260505032105 | 61 | 330 | 0.0 | 1.0 | 0.00 | 0.00 | 0.00 | 67 | 1012.7 |
| 20260505031104 | 61 | 330 | 0.0 | 0.0 | 0.00 | 0.00 | 0.00 | 67 | 1012.6 |
| 20260505030105 | 62 | 332 | 0.0 | 1.0 | 0.00 | 0.00 | 0.00 | 66 | 1012.4 |
| 20260505025104 | 62 | 335 | 0.0 | 1.0 | 0.00 | 0.00 | 0.00 | 63 | 1012.3 |
| 20260505024604 | 63 | 334 | 0.0 | 0.0 | 0.00 | 0.00 | 0.00 | 62 | 1012.2 |
| 20260505024105 | 63 | 334 | 0.0 | 0.0 | 0.00 | 0.00 | 0.00 | 61 | 1012.2 |
| 20260505021104 | 64 | 301 | 1.0 | 3.0 | 0.00 | 0.00 | 0.00 | 56 | 1012.2 |
| 20260505014104 | 65 | 325 | 1.0 | 3.0 | 0.00 | 0.00 | 0.00 | 56 | 1012.5 |
| 20260505013104 | 65 | 302 | 0.0 | 3.0 | 0.00 | 0.00 | 0.00 | 60 | 1012.7 |
| 20260505012104 | 64 | 260 | 0.0 | 1.0 | 0.00 | 0.00 | 0.00 | 60 | 1012.7 |
| 20260505011604 | 64 | 324 | 1.0 | 3.0 | 0.00 | 0.00 | 0.00 | 59 | 1012.8 |
| 20260505010105 | 65 | 313 | 1.0 | 3.0 | 0.00 | 0.00 | 0.00 | 59 | 1012.8 |
| 20260505005605 | 65 | 299 | 1.0 | 5.0 | 0.00 | 0.00 | 0.00 | 58 | 1012.9 |
| 20260505003605 | 65 | 324 | 0.0 | 5.0 | 0.00 | 0.00 | 0.00 | 59 | 1013.0 |
| 20260505002605 | 65 | 320 | 0.0 | 3.0 | 0.00 | 0.00 | 0.00 | 59 | 1013.0 |
| 20260505000106 | 64 | 297 | 1.0 | 3.0 | 0.00 | 0.00 | 0.00 | 59 | 1013.1 |